Terminal Aerodrome Forecast
Issued by NWS Wakefield, VA

Home | Current Version | Previous Version | Text Only | Print | Product List | Glossary On
Versions: 1 2 3 4 5 6 7 8 9 10 11 12 13 14 15 16 17 18 19 20 21
000
FTUS41 KAKQ 031743
TAFSBY
TAF
KSBY 031743Z 0318/0418 33005KT P6SM FEW050
     FM040000 VRB02KT P6SM SKC
     FM040500 00000KT 3SM BR FEW200
     FM041100 04004KT P6SM FEW200
     FM041400 07008KT P6SM FEW200=

USA.gov is the U.S. government's official web portal to all federal, state and local government web resources and services.